User: anonymous   Login
Location: Aulagny
(45.1643°N, 4.3096°E)
Time: 00:01:51
(UTC+00:00)
Language:

SJ-11-01 - Orbit

View from above orbital plane
View from above orbital plane
View from above satellite
View from above satellite

Ground track
Ground track

The orbit data is extracted from the following two-line orbital elements,

1 36088U 09061A   19340.68745573  .00000041  00000-0  17937-4 0  9999
2 36088  98.0165  15.2690 0010989 329.6306  30.4251 14.60120729536332
Epoch (UTC): 06 December 2019 16:29:56
Eccentricity: 0.0010989
inclination: 98.0165°
perigee height: 685 km
apogee height: 700 km
right ascension of ascending node: 15.2690°
argument of perigee: 329.6306°
revolutions per day: 14.60120729
mean anomaly at epoch: 30.4251°
orbit number at epoch: 53633

The dashed part of the orbit path shows where the satellite is in the earth's shadow,  

DLR